Location: Grust
(42.8833°N, 0.0333°W)
Time: 14:27:43
(UTC+00:00)

Cosmos 2082 - Pass Details

Date: 25 October 2020
Orbit: 832 x 857 km, 71.0° (Epoch: 24 November)

Event Time Altitude Azimuth Distance (km) Brightness Sun altitude
Rises 19:08:18 0° 337° (NNW) 3,435 7.2 -23.8°
Reaches altitude 10° 19:10:47 10° 341° (NNW) 2,496 6.4 -24.3°
Maximum altitude 19:16:30 65° 63° (ENE) 938 3.6 -25.3°
Enters shadow 19:16:36 65° 70° (ENE) 938 3.6 -25.3°
